Flag for U.S.A. Weather past 2 weeks in Rancho Cucamonga, California, U.S.A.

Now
71 °F

Clear.


Feels Like: 73 °F
Forecast: 65 / 92 °F
Wind: 8 mph from West

Location: Ontario International Airport

Current Time: Aug 3, 2015 at 12:13:13 AM

Latest Report: Aug 2, 2015 at 11:53 PM


Visibility: 10 mi

Pressure: 29.83 "Hg

Humidity: 73%

Dew point: 62 °F

Location of Rancho CucamongaLocation

Historic Weather in Rancho Cucamonga — Graph

°F

Rancho Cucamonga temperature yesterday

Maximum temperature yesterday: 93 °F (at 3:53 PM)
Minimum temperature yesterday: 66 °F (at 5:53 AM)
Average temperature yesterday: 78 °F

Past Weeks' High & Low Weather Summary

 TemperatureHumidityPressure
High96 °F (Jul 30, 1:53 PM)93% (Jul 20, 3:53 AM)30.05 "Hg (Jul 20, 3:53 AM)
Low65 °F (Jul 23, 5:53 AM)20% (Jul 25, 3:53 PM)29.76 "Hg (Jul 28, 4:53 PM)
Average77 °F61%29.90 "Hg
* Reported Jul 18 10:53 PM — Aug 2 10:53 PM, Rancho Cucamonga, Weather by CustomWeather, © 2015

Note: Actual official high and low records may vary slightly from our data, if they occured in-between our weather recording intervals... More about our weather records

Advertising

Rancho Cucamonga weather history for previous 24 hours

 ConditionsComfort  
Time TempWeatherWind HumidityBarometerVisibility
10:53 PM
Sun, Aug 2
72 °FPassing clouds.12 mph71%29.83 "Hg10 mi
9:53 PM74 °FPassing clouds.9 mph69%29.82 "Hg10 mi
8:53 PM76 °FPassing clouds.9 mph64%29.81 "Hg10 mi
7:53 PM80 °FPassing clouds.9 mph56%29.79 "Hg10 mi
6:53 PM84 °FPassing clouds.10 mph48%29.78 "Hg10 mi
5:53 PM88 °FPassing clouds.13 mph42%29.78 "Hg10 mi
4:53 PM92 °FPassing clouds.13 mph36%29.77 "Hg10 mi
3:53 PM93 °FPassing clouds.16 mph34%29.78 "Hg10 mi
2:53 PM91 °FPassing clouds.15 mph36%29.81 "Hg10 mi
1:53 PM91 °FPassing clouds.12 mph37%29.82 "Hg10 mi
12:53 PM87 °FPassing clouds.10 mph42%29.84 "Hg10 mi
11:53 AM85 °FPassing clouds.8 mph45%29.86 "Hg10 mi
10:53 AM81 °FPassing clouds.7 mph53%29.87 "Hg10 mi
9:53 AM76 °FPassing clouds.5 mph64%29.88 "Hg8 mi
8:53 AM72 °FPassing clouds.5 mph73%29.89 "Hg7 mi
7:53 AM69 °FHaze.No wind79%29.88 "Hg6 mi
6:53 AM68 °FPassing clouds.6 mph82%29.87 "Hg9 mi
5:53 AM66 °FPassing clouds.5 mph87%29.85 "Hg10 mi
4:53 AM67 °FClear.3 mph85%29.84 "Hg10 mi
3:53 AM68 °FClear.No wind82%29.84 "Hg10 mi
2:53 AM67 °FClear.No wind85%29.85 "Hg10 mi
1:53 AM69 °FClear.5 mph79%29.86 "Hg10 mi
12:53 AM70 °FClear.5 mph79%29.87 "Hg10 mi
Weather by CustomWeather, © 2015

See weather overviewHow to use our weather pages